DW2485 Weather Reports


time (UTC)temp
C
wind
direction
speed
KPH
gust
KPH
rain 1hr
cm
rain 24hr
cm
rain mn
cm
humidity
%
barometer
mb
20260906190005 27 112 11.3 19.3 0.00 0.00 0.00 66 1020.4
20260906185504 27 109 9.7 16.1 0.00 0.00 0.00 68 1020.5
20260906185005 26 127 9.7 16.1 0.00 0.00 0.00 67 1020.6
20260906184505 26 80 8.0 12.9 0.00 0.00 0.00 69 1020.6
20260906184005 26 88 8.0 16.1 0.00 0.00 0.00 68 1020.5
20260906183005 27 128 14.5 19.3 0.00 0.00 0.00 66 1020.4
20260906182505 27 94 8.0 14.5 0.00 0.00 0.00 68 1020.4
20260906182005 26 93 11.3 16.1 0.00 0.00 0.00 70 1020.5
20260906181504 26 81 9.7 14.5 0.00 0.00 0.00 69 1020.6
20260906180504 26 73 11.3 14.5 0.00 0.00 0.00 70 1020.6
20260906180005 26 101 8.0 14.5 0.00 0.00 0.00 69 1020.6
20260906173005 26 87 9.7 14.5 0.00 0.00 0.00 70 1021.0
20260906172505 26 102 9.7 16.1 0.00 0.00 0.00 69 1021.0
20260906172005 26 106 8.0 14.5 0.00 0.00 0.00 69 1020.9
20260906171005 26 96 8.0 11.3 0.00 0.00 0.00 73 1021.1
20260906170005 26 136 4.8 12.9 0.00 0.00 0.00 73 1021.1
20260906164005 24 129 8.0 14.5 0.00 0.00 0.00 76 1021.4
20260906163504 24 115 4.8 14.5 0.00 0.00 0.00 78 1021.4
20260906163005 24 101 8.0 11.3 0.00 0.00 0.00 78 1021.4
20260906162005 23 126 9.7 14.5 0.00 0.00 0.00 79 1021.6
20260906161006 23 95 8.0 16.1 0.00 0.00 0.00 79 1021.5
20260906155005 23 138 8.0 14.5 0.00 0.00 0.00 80 1021.5
20260906154004 23 119 11.3 16.1 0.00 0.00 0.00 80 1021.3
20260906153004 23 132 4.8 11.3 0.00 0.00 0.00 79 1021.4
20260906152505 23 96 8.0 14.5 0.00 0.00 0.00 80 1021.3
20260906151504 23 109 6.4 9.7 0.00 0.00 0.00 79 1021.4
20260906150504 23 95 6.4 9.7 0.00 0.00 0.00 79 1021.4
20260906145504 23 103 11.3 14.5 0.00 0.00 0.00 79 1021.0
20260906145004 23 107 11.3 19.3 0.00 0.00 0.00 79 1021.0
20260906143504 23 89 11.3 16.1 0.00 0.00 0.00 81 1020.8
20260906143005 23 97 8.0 14.5 0.00 0.00 0.00 81 1020.8
20260906142505 23 101 9.7 16.1 0.00 0.00 0.00 80 1020.7
20260906141505 22 83 12.9 19.3 0.00 0.00 0.00 82 1020.6
20260906140004 22 90 11.3 16.1 0.00 0.00 0.00 86 1020.9
20260906135504 21 62 9.7 19.3 0.00 0.00 0.00 86 1020.8
20260906133004 21 59 8.0 14.5 0.00 0.00 0.00 89 1020.8
20260906131504 21 68 9.7 19.3 0.00 0.00 0.00 89 1020.8
20260906131005 20 77 11.3 19.3 0.00 0.00 0.00 89 1020.6
20260906130504 20 71 9.7 16.1 0.00 0.00 0.00 90 1020.6
20260906122504 19 80 6.4 11.3 0.00 0.00 0.00 92 1020.5
20260906122004 19 71 6.4 11.3 0.00 0.00 0.00 92 1020.4
20260906121004 19 68 1.6 4.8 0.00 0.00 0.00 93 1020.3
20260906120004 19 71 1.6 4.8 0.00 0.00 0.00 93 1020.3
20260906115504 19 65 4.8 4.8 0.00 0.00 0.00 93 1020.2
20260906113504 19 62 3.2 4.8 0.00 0.00 0.00 92 1020.0
20260906112005 19 74 3.2 4.8 0.00 0.00 0.00 92 1019.9
20260906111004 19 36 4.8 4.8 0.00 0.00 0.00 91 1019.9
20260906105504 20 73 6.4 11.3 0.00 0.00 0.00 91 1019.7
20260906102005 20 89 9.7 20.9 0.00 0.00 0.00 91 1019.3
20260906095004 19 67 11.3 19.3 0.00 0.00 0.00 92 1018.8
20260906094004 19 66 8.0 14.5 0.00 0.00 0.00 92 1018.9
20260906093504 19 65 4.8 12.9 0.00 0.00 0.00 92 1018.9
20260906092004 20 75 4.8 11.3 0.00 0.00 0.00 92 1018.9
20260906091504 20 69 6.4 12.9 0.00 0.00 0.00 92 1018.9
20260906091004 20 73 4.8 14.5 0.00 0.00 0.00 92 1018.8
20260906085504 20 91 9.7 14.5 0.00 0.00 0.00 91 1018.5
20260906084004 20 87 8.0 14.5 0.00 0.00 0.00 92 1018.6
20260906083503 20 91 8.0 11.3 0.00 0.00 0.00 92 1018.7
20260906083004 20 90 8.0 9.7 0.00 0.00 0.00 92 1018.8
20260906082005 20 75 6.4 11.3 0.00 0.00 0.00 92 1018.9
20260906080504 21 72 4.8 9.7 0.00 0.00 0.00 91 1019.0
20260906080004 21 84 6.4 11.3 0.00 0.00 0.00 90 1019.0
20260906075504 21 90 6.4 12.9 0.00 0.00 0.00 90 1018.9
20260906075004 21 84 8.0 14.5 0.00 0.00 0.00 90 1018.9
20260906074003 21 93 4.8 11.3 0.00 0.00 0.00 90 1018.9
20260906073504 21 84 9.7 14.5 0.00 0.00 0.00 90 1018.9
20260906071004 21 81 9.7 12.9 0.00 0.00 0.00 90 1019.1
20260906065004 21 61 8.0 12.9 0.00 0.00 0.00 90 1019.1
20260906064504 21 64 8.0 14.5 0.00 0.00 0.00 90 1019.0
20260906064004 22 89 8.0 12.9 0.00 0.00 0.00 90 1018.9
20260906063004 22 79 8.0 12.9 0.00 0.00 0.00 89 1019.0
20260906062503 22 88 4.8 12.9 0.00 0.00 0.00 89 1019.1
20260906061504 22 73 6.4 14.5 0.00 0.00 0.00 89 1019.1
20260906061003 22 62 8.0 14.5 0.00 0.00 0.00 89 1019.1
20260906055504 22 44 6.4 11.3 0.00 0.00 0.00 88 1018.9
20260906054504 22 69 8.0 11.3 0.00 0.00 0.00 88 1018.7
20260906053004 22 29 9.7 19.3 0.00 0.00 0.00 88 1018.8
20260906051503 22 67 8.0 14.5 0.00 0.00 0.00 88 1018.4
20260906050004 22 41 9.7 14.5 0.00 0.00 0.00 89 1018.9
20260906045004 22 43 6.4 14.5 0.00 0.00 0.00 89 1018.7
20260906044503 22 33 8.0 9.7 0.00 0.00 0.00 89 1018.8
20260906042506 22 12 8.0 8.0 0.00 0.00 0.00 90 1018.9
20260906040506 22 19 4.8 8.0 0.00 0.00 0.00 90 1018.4
20260906040005 22 23 4.8 8.0 0.00 0.00 0.00 90 1018.4
20260906035506 22 12 6.4 8.0 0.00 0.00 0.00 90 1018.5
20260906035006 22 5 4.8 4.8 0.00 0.00 0.00 90 1018.5
20260906033506 22 355 1.6 4.8 0.00 0.00 0.00 90 1018.4
20260906032505 22 9 4.8 4.8 0.00 0.00 0.00 90 1018.4
20260906031005 22 15 4.8 4.8 0.00 0.00 0.00 90 1018.2
20260906030005 22 54 3.2 3.2 0.00 0.00 0.00 90 1018.1
20260906025505 22 54 1.6 1.6 0.00 0.00 0.00 89 1018.1
20260906025005 22 54 0.0 1.6 0.00 0.00 0.00 89 1018.0
20260906024006 22 54 0.0 1.6 0.00 0.00 0.00 89 1017.8
20260906021505 22 34 1.6 3.2 0.00 0.00 0.00 88 1017.4
20260906020506 22 35 3.2 4.8 0.00 0.00 0.00 88 1017.1
20260906014505 23 82 1.6 3.2 0.00 0.00 0.00 86 1016.8
20260906013505 23 82 1.6 3.2 0.00 0.00 0.00 85 1016.6
20260906012505 23 73 3.2 4.8 0.00 0.00 0.00 85 1016.6
20260906012006 23 57 3.2 4.8 0.00 0.00 0.00 84 1016.6
20260906011505 23 63 1.6 4.8 0.00 0.00 0.00 84 1016.6
20260906011006 23 74 3.2 4.8 0.00 0.00 0.00 84 1016.7
20260906010505 24 60 4.8 9.7 0.00 0.00 0.00 83 1016.5
20260906010006 24 56 4.8 9.7 0.00 0.00 0.00 83 1016.6
20260906005506 24 56 8.0 11.3 0.00 0.00 0.00 83 1016.6
20260906005005 24 61 8.0 16.1 0.00 0.00 0.00 82 1016.6
20260906003005 25 54 9.7 16.1 0.00 0.00 0.00 81 1016.5
20260906002005 25 59 8.0 12.9 0.00 0.00 0.00 80 1016.5
20260906001505 25 69 9.7 16.1 0.00 0.00 0.00 80 1016.4
20260906000505 26 65 8.0 19.3 0.00 0.00 0.00 78 1016.5
20260906000005 26 74 11.3 19.3 0.00 0.00 0.00 78 1016.4
20260905235506 26 67 11.3 16.1 0.00 0.00 0.00 78 1016.3
20260905234505 27 82 6.4 12.9 0.00 0.00 0.00 77 1016.3
20260905234006 27 59 9.7 14.5 0.00 0.00 0.00 76 1016.4
20260905233505 27 67 9.7 16.1 0.00 0.00 0.00 75 1016.3
20260905233005 27 77 8.0 14.5 0.00 0.00 0.00 75 1016.3
20260905232005 28 80 9.7 19.3 0.00 0.00 0.00 73 1016.3
20260905231505 28 59 8.0 14.5 0.00 0.00 0.00 73 1016.3
20260905231005 28 66 6.4 19.3 0.00 0.00 0.00 72 1016.1
20260905230505 28 58 8.0 16.1 0.00 0.00 0.00 71 1016.1
20260905225005 28 53 11.3 19.3 0.00 0.00 0.00 70 1016.2
20260905224505 28 47 6.4 14.5 0.00 0.00 0.00 71 1016.2
20260905223505 28 33 11.3 16.1 0.00 0.00 0.00 71 1015.9
20260905223005 28 59 14.5 20.9 0.00 0.00 0.00 71 1016.1
20260905215505 29 41 19.3 25.7 0.00 0.00 0.00 70 1016.2
20260905214005 30 40 14.5 20.9 0.00 0.00 0.00 70 1016.1
20260905213005 30 44 12.9 19.3 0.00 0.00 0.00 69 1016.1
20260905211507 30 43 14.5 20.9 0.00 0.00 0.00 70 1016.1
20260905210506 31 29 9.7 24.1 0.00 0.00 0.00 70 1016.0
20260905204005 31 33 19.3 24.1 0.00 0.00 0.00 68 1015.8
20260905203505 31 46 14.5 20.9 0.00 0.00 0.00 68 1015.7
20260905202505 32 51 11.3 19.3 0.00 0.00 0.00 68 1015.7
20260905202005 32 63 11.3 19.3 0.00 0.00 0.00 66 1015.8
20260905201005 32 56 12.9 20.9 0.00 0.00 0.00 68 1015.7
20260905195005 32 25 9.7 16.1 0.00 0.00 0.00 69 1016.3
20260905194505 32 12 16.1 20.9 0.00 0.00 0.00 69 1016.3
20260905194005 31 17 9.7 19.3 0.00 0.00 0.00 70 1016.3
20260905193506 32 28 8.0 19.3 0.00 0.00 0.00 70 1016.5
20260905193005 31 355 8.0 12.9 0.00 0.00 0.00 70 1016.4
20260905191505 32 48 9.7 14.5 0.00 0.00 0.00 68 1016.3
20260905191005 31 25 9.7 16.1 0.00 0.00 0.00 68 1016.4
20260905190505 32 14 8.0 14.5 0.00 0.00 0.00 67 1016.4